TimeCST,TemperatureF,Dew PointF,Humidity,Sea Level PressureIn,VisibilityMPH,Wind Direction,Wind SpeedMPH,Gust SpeedMPH,PrecipitationIn,Events,Conditions,WindDirDegrees,DateUTC
12:53 AM,34.0,17.1,50,30.22,10.0,NNW,6.9,-,N/A,,Clear,330,2014-01-19 06:53:00
1:53 AM,28.9,17.1,61,30.22,10.0,WNW,4.6,-,N/A,,Clear,300,2014-01-19 07:53:00
2:53 AM,27.0,17.1,66,30.23,10.0,WSW,8.1,-,N/A,,Clear,240,2014-01-19 08:53:00
3:53 AM,28.9,17.1,61,30.24,10.0,WSW,10.4,-,N/A,,Clear,250,2014-01-19 09:53:00
4:53 AM,30.0,17.1,59,30.24,10.0,WSW,8.1,-,N/A,,Clear,250,2014-01-19 10:53:00
5:53 AM,33.1,17.1,52,30.22,10.0,WSW,12.7,-,N/A,,Clear,240,2014-01-19 11:53:00
6:53 AM,33.1,17.1,52,30.22,10.0,SW,12.7,-,N/A,,Clear,230,2014-01-19 12:53:00
7:53 AM,33.1,16.0,50,30.22,10.0,SW,16.1,-,N/A,,Clear,230,2014-01-19 13:53:00
8:53 AM,36.0,17.1,46,30.22,10.0,SW,13.8,-,N/A,,Clear,220,2014-01-19 14:53:00
9:53 AM,45.0,19.0,36,30.22,10.0,SSW,18.4,-,N/A,,Clear,210,2014-01-19 15:53:00
10:53 AM,51.1,19.0,28,30.19,10.0,SSW,24.2,31.1,N/A,,Clear,210,2014-01-19 16:53:00
11:53 AM,57.0,19.0,23,30.14,10.0,SSW,28.8,34.5,N/A,,Clear,200,2014-01-19 17:53:00
12:53 PM,62.1,21.0,21,30.09,10.0,SSW,23.0,32.2,N/A,,Clear,200,2014-01-19 18:53:00
1:53 PM,66.9,19.0,16,30.05,10.0,SW,24.2,32.2,N/A,,Clear,220,2014-01-19 19:53:00
2:53 PM,69.1,19.0,15,30.00,10.0,SSW,24.2,-,N/A,,Clear,210,2014-01-19 20:53:00
3:53 PM,72.0,15.1,11,29.96,10.0,SSW,24.2,31.1,N/A,,Clear,210,2014-01-19 21:53:00
4:53 PM,70.0,15.1,12,29.96,10.0,SSW,20.7,-,N/A,,Clear,210,2014-01-19 22:53:00
5:53 PM,62.1,17.1,18,29.95,10.0,SSW,15.0,-,N/A,,Clear,200,2014-01-19 23:53:00
6:53 PM,55.9,18.0,23,29.97,10.0,South,13.8,-,N/A,,Clear,190,2014-01-20 00:53:00
7:53 PM,53.1,19.0,26,29.97,10.0,South,16.1,-,N/A,,Clear,190,2014-01-20 01:53:00
8:53 PM,52.0,19.0,27,29.96,10.0,South,16.1,-,N/A,,Clear,190,2014-01-20 02:53:00
9:53 PM,50.0,18.0,28,29.94,10.0,South,13.8,-,N/A,,Clear,190,2014-01-20 03:53:00
10:53 PM,46.9,18.0,32,29.93,10.0,SSW,12.7,-,N/A,,Clear,200,2014-01-20 04:53:00
11:53 PM,44.1,19.0,37,29.91,10.0,SSW,12.7,-,N/A,,Clear,210,2014-01-20 05:53:00